CZ-6A DEB, 61836

Orbit data source: Space-Track

CZ-6A DEB, 61836 is space debris in LEO originally from a launch on Tue, 06 Aug 2024 UTC launched from the Taiyaun Space Center, China (TSC). Debris objects in space refer to the collection of defunct objects orbiting the Earth. Examples of debris include non-operational satellites, rocket bodies, and fragments generated from explosions, collisions, or faulty payload assembly.

Loading next visibility...
Identifier
61836, 2024-140ADC
Orbit
LEO
Country
Flag of CNCN / PRC
Related business
Manufacturer
SAST
Mission
Spacecraft
Bus & Motor
Unknown
Mass
Unknown
Launch date (UTC)
2024-08-06 (2 years ago)
Launch vehicle
Unknown
Launch site
Taiyaun Space Center, China (TSC)
Object type
Payload
Rocket body
Debris
Shape & HBR
Unknown shape, 0.1 m
Radar Cross Section
Small (<0.1 m²)

Expand to show TLE details & history
Last TLE update: 13 hours ago

TLE from 13 hours ago
0 CZ-6A DEB
1 61836U 24140ADC 26171.29796578  .00003922  00000-0  73707-3 0  9998
2 61836  89.0622 274.7992 0086031 242.6730 116.5706 14.62126231 93382
Epoch: 2026-06-20T07:09Z
TLE epoch observation values (Epoch: 2026-06-20T07:09:04.243Z)
Latitude
-0.00008°
Longitude
-100.98308°
Altitude
717.037 km
Speed
7.482 km/s
True Right ascension
18h 19m 11s
True Declination
0° 00' 00"
Sunlit
Object was in full shadow at epoch
Visualization orbit readout
Latitude
Unknown
Longitude
Unknown
Altitude
Unknown
Speed
Unknown
Apparent Right ascension
Unknown
Apparent Declination
Unknown
Sunlit
N/A
Visualization observer readout
Local Sidereal Time
07:20:19
Azimuth
Unknown
Elevation
Unknown
Doppler factor
Unknown
Orbital elements
Apogee altitude
743.957 km
Perigee altitude
622.458 km
Semi-major axis
7,061.344 km
Eccentricity
0.0086
Inclination
89.0622°
RAAN
274.7992°
Arg. of periapsis
242.673°
True anomaly
117.44807°
Mean anomaly
116.5706°
Eccentric anomaly
117.00976°
Mean motion
3.65773 °/min
Orbital period
98.42 mins
BSTAR
0.00073707
Loading maneuver chart data...
Computing Atmospheric mass density...
Loading historical data...
Loading historical data...
Loading historical data...
Loading historical data...
Loading historical data...
Loading historical data...
Loading historical data...

Documentation

Showing up to 5 results
|